Temperature
8 6 6 6 7 7 7 7 7 7 8 7 7 7 8 8 8 8 9 9 10 10 10 10 10 10 10 10 10 10 10 10 10 10 10 10 10 10 10 10 10 10 10 10
6 6 7 7 7 7 7 7 7 7 7 8 7 7 8 8 8 8 9 9 10 10 10 10 10 10 10 10 10 10 10 10 9 9 10 10 10 10 10 10 10 10 10 10
7 7 7 7 7 7 7 7 7 7 7 7 7 7 8 8 8 9 9 9 10 9 9 10 10 10 10 10 10 10 10 9 9 9 9 9 9 9 9 10 10 10 10 10
7 7 7 7 7 7 7 7 7 7 6 6 6 7 7 7 7 8 8 9 9 9 10 10 10 10 9 9 9 9 9 9 9 9 9 9 9 9 9 9 9 9 9 9
7 7 7 7 8 7 7 7 7 7 6 6 6 6 7 7 8 8 8 9 9 10 10 10 10 10 10 9 9 9 9 9 9 9 9 9 9 9 9 9 9 9 9 9
7 7 7 7 7 7 7 7 7 6 6 7 6 6 7 6 8 8 8 9 9 9 10 10 10 10 10 9 9 9 9 9 9 9 9 9 9 9 8 8 8 8 8 8
7 7 7 7 7 7 6 6 6 6 6 6 6 6 6 7 7 7 8 9 9 10 9 9 9 9 9 9 9 9 9 9 9 9 9 8 8 8 8 8 8 8 8 8
7 7 7 7 7 7 6 6 6 7 6 6 6 6 7 7 7 8 8 9 9 9 9 9 10 9 9 9 9 9 8 8 8 8 8 8 8 8 8 8 8 8 8 8
6 7 7 7 7 7 7 6 6 5 5 5 6 6 7 8 7 7 8 8 9 9 9 9 9 9 9 9 9 9 8 8 8 8 8 8 8 8 8 8 7 7 7 7
6 6 7 6 7 7 7 6 5 6 7 7 7 6 7 7 7 7 7 7 8 9 9 9 9 9 9 9 9 8 8 8 8 8 8 8 8 8 7 7 7 7 7 7
6 6 6 6 7 7 6 6 5 5 5 6 6 7 7 7 7 6 6 7 8 8 9 9 9 9 9 9 9 8 8 8 8 8 8 7 7 7 7 7 7 7 7 7
5 5 5 6 6 6 6 6 5 6 6 5 5 6 7 6 6 6 7 7 8 8 8 8 9 9 9 9 9 8 8 8 8 8 7 7 7 7 7 7 7 6 6 6
5 5 6 7 7 6 6 6 5 5 4 4 4 6 7 6 6 7 7 7 8 8 8 8 8 8 8 8 8 8 8 8 8 7 7 7 7 7 7 6 6 6 6 6
6 5 5 7 7 6 5 5 5 5 4 4 4 6 7 6 6 6 7 7 7 7 8 8 8 8 8 8 8 8 8 7 7 7 7 7 7 6 6 6 6 6 6 6
5 5 4 4 5 4 5 5 4 4 4 4 5 5 6 6 5 6 6 6 7 7 7 7 7 8 8 8 8 7 7 7 7 7 7 6 6 6 6 6 6 6 5 5
4 4 4 4 5 4 4 5 4 4 4 4 4 5 5 5 6 6 6 6 6 7 7 7 7 7 7 7 7 7 7 7 7 6 6 6 6 6 6 5 5 5 5 5
3 3 4 4 4 5 5 6 5 5 4 4 5 5 5 4 5 5 6 6 6 7 7 7 7 7 7 7 7 7 7 6 6 6 6 6 6 6 5 5 5 5 5 5
3 3 3 3 4 5 7 6 5 5 5 4 4 4 4 4 5 6 6 6 6 6 7 7 7 7 7 7 7 6 6 6 6 6 6 6 5 5 5 5 5 4 4 4
2 3 3 3 3 4 5 5 5 5 5 4 4 4 4 5 5 6 6 6 6 6 6 6 6 6 7 7 6 6 6 6 6 6 5 5 5 5 5 4 4 4 4 4
1 2 3 3 4 5 7 6 5 5 5 5 4 4 4 4 3 4 6 6 6 6 6 6 6 6 6 6 6 6 6 6 5 5 5 5 5 5 4 4 4 4 3 3
2 2 2 3 3 4 5 5 5 6 5 5 5 5 4 4 4 5 5 5 5 5 6 5 5 6 6 6 5 5 5 5 5 5 5 4 4 4 4 4 3 3 3 3
2 2 2 2 3 4 5 4 4 5 5 5 5 5 5 5 5 5 5 5 5 5 5 5 5 5 5 5 5 5 5 5 4 4 4 4 4 4 3 3 3 3 2 2
2 2 2 3 4 5 5 5 6 5 5 5 5 5 5 4 4 4 4 5 4 4 4 4 4 4 4 4 4 4 4 4 4 4 4 4 3 3 3 3 3 2 2 2
1 1 1 1 2 4 5 5 5 5 5 5 5 4 4 4 4 4 4 4 4 4 4 4 4 4 4 4 4 4 4 4 4 3 3 3 3 3 3 2 2 2 2 1
2 1 1 1 2 3 5 5 5 5 5 4 4 4 4 4 3 3 3 3 3 3 3 3 3 3 3 3 3 3 3 3 3 3 3 3 2 2 2 2 2 2 2 1
1 1 1 2 3 3 4 5 4 4 4 4 4 3 3 3 3 3 3 3 3 3 3 3 3 3 3 3 3 3 2 2 2 2 2 2 2 2 2 2 1 1 1 1
Wind_Speed
3 3 2 5 4 6 5 6 9 8 5 5 8 11 12 8 5 6 5 4 5 5 2 1 1 2 3 3 4 5 5 5 5 3 2 2 1 1 1 2 3 4 4 4
4 2 5 5 4 4 5 6 7 8 4 4 7 10 9 5 4 5 5 5 5 3 1 1 2 2 3 4 4 4 5 5 5 3 2 2 2 1 0 1 2 3 4 3
2 5 3 2 4 3 4 4 5 7 7 4 5 8 5 4 2 2 2 3 3 4 4 2 3 3 2 4 5 5 5 5 4 4 3 3 3 2 1 0 0 1 3 3
3 4 2 3 4 2 5 4 5 6 5 4 3 4 7 5 4 3 3 2 3 3 3 3 4 4 4 4 3 4 4 5 5 5 5 5 3 2 2 2 1 1 2 3
4 3 2 3 4 2 5 5 4 3 2 3 3 1 7 4 4 5 4 4 4 4 4 4 5 5 4 3 3 3 3 3 4 5 6 5 3 2 1 1 2 1 1 2
4 3 2 4 3 2 4 3 2 2 2 2 2 1 6 4 4 5 5 5 4 3 3 4 3 3 3 2 2 3 4 3 4 4 4 5 5 4 3 2 2 1 1 1
6 4 2 1 4 4 4 4 5 6 4 4 3 2 7 6 5 5 6 6 4 3 3 3 3 4 4 4 3 3 4 3 4 4 4 4 5 5 5 4 3 2 1 2
4 6 3 1 0 1 2 2 3 1 4 6 4 4 6 6 6 5 5 4 3 2 2 4 5 5 5 5 5 5 5 4 4 4 4 4 4 3 3 4 3 4 3 3
1 5 3 1 1 1 1 1 2 3 2 4 6 7 8 4 5 6 5 4 4 3 2 3 3 4 4 5 6 6 6 5 5 4 4 4 4 4 4 3 3 3 3 2
3 4 5 4 1 2 1 3 3 2 1 4 7 6 5 7 8 8 7 6 6 4 3 3 3 4 4 5 5 5 5 6 4 4 4 4 4 4 4 3 4 4 3 3
2 2 5 3 1 2 1 1 2 2 2 1 5 7 4 5 5 6 7 7 7 6 5 4 3 3 3 3 4 4 4 4 4 4 4 4 3 3 3 4 4 4 4 4
2 3 4 6 4 2 2 3 4 1 2 2 3 8 5 4 5 5 8 8 7 7 5 4 3 2 2 3 3 4 4 4 4 4 4 4 4 3 3 4 4 4 4 4
3 2 3 6 3 2 0 2 2 2 2 3 3 8 4 6 7 7 7 8 7 6 5 4 3 2 2 3 3 4 4 5 4 4 4 4 4 4 4 4 3 3 3 3
4 3 5 6 5 2 5 4 3 3 3 5 8 11 12 10 10 10 9 8 7 5 4 3 3 3 3 3 4 4 4 4 4 4 5 5 5 5 4 4 3 3 3 4
4 3 5 7 7 5 8 9 7 8 8 8 9 9 12 10 9 9 8 7 7 7 6 5 4 3 3 3 3 3 4 4 4 4 5 5 5 4 3 3 3 3 3 4
2 2 2 5 4 5 9 11 9 10 8 9 9 12 8 6 5 6 7 7 7 7 7 6 6 4 4 4 4 4 4 4 4 5 6 4 4 4 4 3 3 2 2 3
2 3 1 5 5 6 8 7 7 6 6 7 8 8 5 5 7 7 6 6 7 8 8 7 6 5 5 5 4 5 5 4 4 5 4 4 4 4 4 3 3 3 3 3
6 5 2 3 4 6 6 1 5 5 5 6 6 6 5 7 8 7 5 5 7 8 8 7 6 6 5 4 3 3 2 3 4 4 4 4 4 4 3 3 3 3 2 2
6 6 3 2 3 9 8 3 3 3 4 3 4 6 7 7 5 4 3 4 6 7 7 7 6 6 5 4 3 2 2 2 3 4 5 5 5 4 4 4 4 3 2 2
3 4 4 3 4 7 5 1 2 2 4 2 2 4 5 5 5 6 7 7 8 7 6 6 5 5 4 4 1 2 3 3 5 5 5 4 5 5 5 5 3 2 2 3
4 3 5 6 6 9 6 2 2 2 5 3 2 4 3 3 5 7 9 8 7 7 6 5 5 4 5 3 1 2 3 5 6 4 3 3 4 5 5 4 2 2 2 2
8 7 7 6 6 9 3 4 4 5 3 3 3 4 5 7 8 8 8 8 8 7 7 5 5 6 4 2 2 3 5 5 3 2 3 4 4 4 3 4 3 3 3 3
8 8 6 9 8 3 3 4 4 3 3 4 4 5 5 6 7 8 7 7 7 7 6 5 5 6 5 3 3 5 5 3 2 3 3 3 3 3 3 4 4 3 3 3
5 3 4 5 8 6 6 5 4 4 5 5 5 6 5 6 7 8 8 7 7 7 6 5 5 6 6 5 4 5 4 3 3 3 4 3 3 3 3 3 4 4 4 4
5 5 4 6 7 6 5 5 5 5 5 6 6 5 6 6 8 8 7 7 7 6 6 5 5 6 7 6 5 5 4 3 3 4 4 3 3 4 4 4 5 5 6 6
5 6 6 8 6 6 7 6 5 5 6 6 6 7 6 6 7 7 7 7 7 7 6 6 6 6 7 6 6 5 3 3 3 3 3 3 3 3 3 3 3 5 5 7
Wind_Direction
19 47 314 274 241 243 260 275 287 280 287 294 276 279 287 290 279 272 265 250 248 244 244 160 127 137 135 139 146 149 145 143 140 136 135 126 112 70 73 105 122 130 131 133
21 304 263 268 267 256 259 287 296 295 310 296 291 288 285 275 264 256 253 247 240 237 218 142 131 141 162 166 163 159 158 158 160 156 139 128 126 109 124 103 108 129 134 140
226 263 290 288 309 302 287 265 287 296 317 327 323 317 315 312 281 291 270 249 238 225 220 205 174 180 180 179 179 175 166 162 161 143 119 100 81 69 64 158 152 132 141 140
272 282 308 303 292 293 290 264 275 294 328 321 12 316 308 316 323 314 293 276 254 245 226 209 194 190 191 199 186 171 166 160 161 154 153 154 158 184 215 210 189 124 135 141
289 303 313 289 275 252 260 290 278 277 283 320 349 276 294 327 324 310 297 281 262 242 220 210 205 199 186 179 172 166 159 161 165 165 167 161 164 184 186 158 153 146 109 135
265 275 247 257 283 244 284 327 334 47 61 337 304 225 296 296 283 303 300 293 279 252 222 208 195 173 159 151 157 158 163 173 175 172 171 174 175 168 162 190 187 186 181 177
330 316 294 290 343 358 28 35 14 6 7 280 305 255 261 277 284 285 290 289 287 261 217 201 186 180 177 176 177 172 176 187 185 176 179 191 188 179 187 194 201 193 204 220
342 307 303 334 170 308 347 90 114 270 281 296 323 268 265 282 296 297 297 297 301 280 237 217 204 198 197 194 190 183 191 197 192 189 192 192 188 191 198 194 196 205 215 220
251 282 307 301 254 140 53 106 168 152 264 285 291 295 304 313 341 348 346 343 331 302 267 240 224 209 206 204 202 195 194 198 198 193 190 192 190 194 196 196 196 208 215 214
169 280 299 316 39 20 131 144 86 91 350 303 304 297 283 314 331 336 338 331 321 319 297 257 230 218 212 208 205 198 195 199 197 189 192 198 196 196 192 187 202 213 216 208
159 217 306 349 184 224 87 92 107 120 171 212 302 290 246 273 303 314 314 316 316 311 300 282 255 228 212 201 196 199 200 196 193 192 193 193 195 194 189 196 211 214 212 207
156 140 278 270 253 205 194 185 151 154 266 209 243 275 282 278 294 304 311 319 324 315 304 290 269 233 210 207 202 203 206 206 206 198 194 197 192 189 194 206 217 214 213 213
141 114 337 342 352 20 290 211 172 155 161 195 219 270 305 333 329 327 323 321 324 328 328 326 317 268 236 226 218 212 211 211 204 192 192 196 196 197 204 212 215 215 215 218
128 162 194 227 255 274 276 259 217 175 205 237 237 266 297 315 325 327 326 321 322 325 332 330 312 285 262 240 226 223 225 212 198 190 194 204 210 210 211 210 208 212 212 213
123 216 240 255 266 261 255 255 233 217 214 224 253 263 280 299 305 309 315 323 330 329 329 321 307 288 276 266 246 228 225 217 199 194 205 216 216 210 203 204 210 210 210 216
112 213 278 286 273 271 270 259 238 233 232 240 265 275 276 298 312 320 323 322 320 314 312 311 308 298 280 267 256 241 230 218 200 205 215 213 202 203 205 208 208 209 220 222
167 163 243 280 310 321 278 251 213 222 217 206 234 255 300 317 315 306 305 307 300 302 304 303 297 285 273 265 251 240 233 213 203 212 215 209 202 205 210 203 196 210 219 214
162 155 185 286 348 263 252 238 199 226 246 225 248 273 288 290 293 286 280 290 300 303 303 300 297 291 284 270 257 243 224 207 209 215 218 212 204 208 206 200 208 214 211 209
169 159 173 197 268 279 291 260 184 205 278 234 242 284 305 313 323 318 321 312 297 296 297 295 293 291 291 280 258 218 222 214 216 223 222 215 205 202 199 209 216 215 205 216
120 142 166 187 234 256 261 233 196 132 279 267 247 296 314 348 341 304 320 321 311 308 305 305 308 310 304 294 252 211 233 227 233 233 228 215 202 199 204 210 209 203 199 211
139 170 199 210 238 264 258 250 106 187 256 291 265 280 284 266 258 284 309 310 307 308 309 312 314 312 300 289 233 238 247 246 248 241 227 217 210 207 205 199 195 187 187 186
179 180 195 185 216 253 218 136 179 228 268 274 270 272 271 274 283 293 299 303 310 315 315 317 316 311 303 273 229 250 259 262 253 228 225 227 220 211 196 185 191 186 182 194
201 195 192 198 219 257 211 221 241 232 259 268 266 277 277 279 286 296 299 302 305 307 308 310 305 307 306 281 242 253 267 262 237 222 230 233 224 212 195 187 189 191 189 200
242 195 193 248 264 265 262 259 259 247 252 268 271 277 274 274 284 293 296 299 301 302 305 309 311 308 303 295 272 259 264 248 226 230 236 228 219 220 208 201 195 197 202 209
220 179 211 255 276 297 274 250 262 275 274 281 285 276 269 272 280 283 289 293 294 297 300 302 299 297 295 294 285 277 260 233 235 239 238 229 219 216 216 216 212 210 213 209
196 197 208 244 244 240 267 270 270 274 279 282 288 292 286 270 273 283 287 289 291 293 296 296 292 289 290 289 286 281 262 234 229 243 240 231 224 221 216 220 247 240 233 240
Height
1520 1524 1525 1523 1522 1521 1521 1521 1518 1512 1506 1506 1503 1498 1492 1489 1488 1487 1486 1487 1487 1488 1488 1489 1490 1491 1493 1494 1496 1498 1500 1502 1503 1505 1506 1508 1510 1511 1513 1515 1516 1517 1519 1520
1524 1525 1521 1520 1519 1519 1519 1518 1516 1510 1506 1505 1502 1497 1490 1488 1487 1486 1485 1485 1485 1486 1487 1488 1489 1490 1492 1493 1495 1497 1499 1501 1502 1504 1505 1506 1508 1509 1511 1513 1514 1516 1517 1518
1524 1523 1519 1519 1519 1517 1516 1516 1515 1513 1508 1505 1503 1497 1490 1486 1485 1484 1484 1483 1484 1484 1485 1486 1488 1490 1491 1492 1494 1496 1498 1499 1501 1503 1504 1505 1507 1507 1509 1511 1512 1513 1514 1516
1523 1520 1519 1518 1517 1516 1516 1512 1512 1512 1512 1512 1510 1508 1493 1489 1486 1484 1483 1482 1482 1483 1484 1485 1486 1488 1490 1491 1493 1495 1496 1498 1499 1501 1502 1504 1505 1506 1507 1508 1510 1511 1512 1513
1522 1520 1519 1518 1516 1515 1514 1511 1511 1511 1511 1513 1512 1511 1499 1491 1487 1484 1482 1481 1481 1481 1482 1483 1484 1486 1488 1490 1492 1494 1495 1496 1498 1499 1501 1502 1503 1504 1506 1506 1507 1508 1509 1510
1521 1519 1518 1516 1514 1513 1512 1511 1510 1512 1514 1514 1512 1513 1503 1495 1488 1484 1481 1480 1480 1480 1481 1482 1484 1485 1487 1489 1491 1492 1494 1495 1496 1498 1499 1500 1501 1502 1503 1504 1504 1505 1506 1507
1523 1518 1516 1516 1515 1513 1514 1517 1521 1519 1522 1516 1512 1511 1503 1489 1486 1484 1481 1479 1478 1479 1479 1480 1482 1483 1485 1487 1489 1491 1492 1493 1495 1496 1497 1498 1499 1500 1501 1502 1502 1503 1504 1504
1527 1525 1517 1516 1516 1517 1517 1519 1525 1525 1526 1520 1513 1510 1496 1487 1485 1483 1481 1479 1478 1478 1478 1479 1480 1482 1484 1485 1487 1489 1490 1491 1493 1494 1495 1496 1497 1498 1499 1500 1501 1501 1502 1502
1528 1524 1517 1515 1515 1516 1517 1521 1521 1526 1526 1525 1514 1506 1494 1485 1484 1482 1481 1479 1478 1478 1478 1478 1479 1480 1482 1483 1485 1486 1488 1490 1491 1492 1493 1493 1494 1495 1496 1497 1498 1498 1499 1499
1525 1526 1519 1517 1516 1516 1518 1520 1525 1524 1522 1520 1513 1508 1501 1489 1486 1484 1482 1480 1478 1478 1477 1477 1478 1479 1480 1482 1483 1485 1486 1487 1489 1490 1490 1491 1492 1493 1493 1494 1495 1496 1496 1496
1524 1527 1523 1519 1517 1518 1519 1520 1522 1526 1525 1523 1520 1507 1493 1490 1488 1486 1483 1480 1478 1477 1476 1476 1476 1477 1478 1480 1481 1482 1484 1485 1486 1487 1488 1488 1489 1490 1491 1491 1492 1493 1493 1494
1524 1528 1528 1520 1516 1515 1516 1518 1522 1524 1524 1527 1526 1511 1489 1488 1486 1485 1482 1480 1478 1476 1475 1474 1474 1475 1476 1477 1478 1480 1481 1482 1484 1485 1485 1486 1487 1487 1488 1488 1489 1490 1490 1490
1523 1527 1527 1520 1519 1518 1517 1517 1519 1522 1525 1528 1526 1508 1488 1487 1485 1484 1482 1480 1478 1476 1474 1473 1473 1473 1474 1475 1476 1477 1478 1480 1481 1482 1482 1483 1484 1484 1485 1486 1486 1487 1487 1487
1519 1525 1527 1523 1517 1518 1517 1516 1517 1520 1525 1523 1516 1503 1491 1488 1486 1483 1481 1479 1477 1475 1474 1473 1472 1472 1473 1473 1474 1475 1476 1477 1478 1478 1478 1479 1480 1481 1482 1482 1483 1483 1483 1483
1518 1523 1522 1520 1518 1518 1515 1513 1514 1515 1514 1514 1506 1502 1492 1489 1487 1484 1481 1479 1477 1475 1474 1473 1472 1471 1471 1471 1472 1472 1473 1474 1474 1475 1475 1476 1477 1478 1478 1479 1479 1479 1479 1479
1519 1522 1521 1519 1515 1515 1512 1507 1508 1507 1507 1506 1502 1498 1489 1488 1486 1483 1481 1478 1476 1474 1473 1472 1471 1470 1469 1469 1470 1470 1470 1471 1471 1471 1472 1473 1474 1474 1475 1475 1475 1475 1475 1475
1520 1522 1522 1520 1517 1511 1506 1497 1499 1499 1498 1499 1498 1493 1488 1487 1484 1482 1480 1478 1476 1474 1472 1471 1470 1469 1468 1468 1467 1467 1467 1468 1468 1468 1468 1469 1470 1470 1471 1471 1471 1471 1471 1471
1518 1521 1523 1523 1517 1512 1496 1492 1492 1493 1493 1493 1492 1490 1488 1486 1483 1481 1479 1478 1475 1473 1471 1470 1468 1466 1466 1465 1465 1464 1464 1464 1464 1464 1465 1465 1466 1466 1467 1467 1467 1467 1467 1466
1512 1516 1522 1523 1520 1509 1495 1491 1491 1492 1490 1488 1489 1487 1486 1483 1480 1478 1478 1476 1475 1473 1471 1468 1466 1464 1463 1462 1461 1461 1461 1461 1461 1461 1461 1462 1462 1462 1463 1463 1463 1463 1463 1462
1512 1514 1519 1519 1514 1505 1490 1488 1487 1490 1490 1486 1485 1485 1484 1482 1483 1479 1476 1474 1472 1470 1468 1466 1464 1462 1460 1459 1459 1458 1458 1457 1457 1458 1458 1458 1458 1459 1459 1459 1459 1459 1459 1459
1514 1516 1516 1515 1512 1500 1489 1487 1487 1493 1488 1484 1483 1483 1482 1482 1481 1478 1474 1472 1470 1467 1465 1463 1461 1459 1458 1457 1456 1455 1455 1454 1455 1455 1454 1455 1455 1455 1455 1455 1455 1455 1455 1455
1505 1510 1512 1511 1510 1499 1485 1486 1488 1486 1483 1482 1481 1481 1480 1478 1476 1474 1472 1469 1467 1465 1462 1460 1458 1456 1455 1454 1453 1452 1452 1452 1451 1451 1451 1451 1451 1451 1451 1451 1451 1451 1451 1451
1497 1495 1496 1496 1491 1484 1482 1482 1482 1482 1481 1480 1479 1478 1477 1475 1472 1470 1468 1466 1464 1461 1459 1457 1455 1453 1452 1451 1450 1449 1449 1448 1447 1447 1447 1447 1447 1447 1447 1447 1447 1447 1447 1447
1491 1489 1491 1490 1483 1480 1480 1479 1479 1479 1478 1477 1476 1474 1473 1471 1469 1467 1464 1462 1460 1458 1456 1454 1452 1450 1448 1447 1447 1446 1445 1445 1444 1443 1443 1443 1443 1443 1443 1443 1443 1443 1443 1442
1484 1487 1487 1486 1480 1478 1475 1476 1476 1475 1474 1473 1471 1470 1469 1467 1465 1463 1460 1458 1456 1454 1452 1450 1448 1446 1445 1444 1443 1442 1441 1441 1440 1439 1439 1439 1438 1438 1438 1438 1439 1438 1439 1439
1480 1481 1482 1478 1475 1475 1473 1472 1472 1471 1470 1469 1467 1465 1464 1463 1460 1458 1456 1454 1452 1450 1448 1446 1445 1443 1441 1440 1438 1438 1437 1437 1436 1435 1434 1434 1434 1434 1433 1433 1434 1434 1434 1434